TEVEL2-1

Last updated on Sat Sep 05 2026 00:03:18 GMT+0000 (Coordinated Universal Time)

1 63217U 25052H 26247.44224453 .00011443 00000+0 32523-3 0 9992 2 63217 97.3749 143.4974 0002724 152.2275 207.9115 15.36325396 82256
UTC large
Height (km)
Speed (km/s)
/
Latitude / Longitude
Inclination (degrees)
Orbital Period (minutes)
Azimuth
Elevation
Range (km)
Doppler Factor

Next 0 passes for location: London (51.5072 / 0.1276)

No passes found over London.
TEVEL2-1